Location: *
(51.2167°N, 10.0667°E)
Time: 05:14:50
(UTC+00:00)

Cosmos 1733 Rocket - Pass Details

Date: 12 December 2019
Orbit: 604 x 627 km, 82.5° (Epoch: 24 January)

Event Time Altitude Azimuth Distance (km) Brightness Sun altitude
Rises 16:38:53 0° 344° (NNW) 2,893 6.4 -12.7°
Reaches altitude 10° 16:41:10 10° 339° (NNW) 1,987 5.7 -13.0°
Maximum altitude 16:45:22 45° 267° (W) 845 4.3 -13.6°
Drops below altitude 10° 16:49:33 10° 194° (SSW) 1,985 6.1 -14.2°
Sets 16:51:50 0° 189° (S) 2,889 6.9 -14.6°
